Weather History for Palm Springs, CA

Change the Weather History Date:

Tuesday, April 9, 2013

  Actual Average Record
Temperature  
Mean Temperature 70 °F 69 °F  
Max Temperature 81 °F 83 °F 108 °F (1989)
Min Temperature 58 °F 56 °F 36 °F (1953)
Degree Days  
Heating Degree Days 0 1  
Month to date heating degree days 0 9  
Since 1 July heating degree days 760 860  
Cooling Degree Days 5 5  
Month to date cooling degree days 72 44  
Year to date cooling degree days 304 164  
Growing Degree Days 20 (Base 50)    
Moisture  
Dew Point 20 °F    
Average Humidity 20    
Maximum Humidity 32    
Minimum Humidity 8    
Precipitation  
Precipitation 0.00 in 0.00 in 0.58 in (1975)
Month to date precipitation 0.00 0.03  
Year to date precipitation 0.97 2.67  
Since 1 July precipitation 2.19 5.47  
Snow  
Snow 0.00 in - - ()
Month to date snowfall 0.0  
Year to date snowfall 0.0  
Since 1 July snowfall 0.0  
Snow Depth 0.00 in    
Sea Level Pressure  
Sea Level Pressure 29.80 in    
Wind  
Wind Speed 11 mph (NNW)    
Max Wind Speed 26 mph    
Max Gust Speed 32 mph    
Visibility 10 miles    
Events      
T = Trace of Precipitation, MM = Missing Value Source: NWS Daily Summary

Daily Weather History Graph

Daily Weather History Graph

Search for Another Location

Airport:

Trip Planner

Search our weather history database for the weather conditions in past years. The results will help you decide how hot, cold, wet, or windy it might be!

Date:

Astronomy

Apr. 09, 2013 Rise Set
Actual Time 6:22 AM PDT 7:12 PM PDT
Civil Twilight 5:57 AM PDT 7:38 PM PDT
Nautical Twilight 5:27 AM PDT 8:08 PM PDT
Astronomical Twilight 4:56 AM PDT 8:39 PM PDT
Moon 5:46 AM PDT (4/9) 6:52 PM PDT (4/9)
Length of Visible Light 13h 41m
Length of Day
12h 50m
Waning Crescent, 0% of the Moon is Illuminated
Apr 9
Waning Crescent
Apr 10
New
Apr 18
First Quarter
Apr 25
Full
May 2
Last Quarter

Hourly Weather History & Observations

Time (PDT) Temp. Dew Point Humidity Pressure Visibility Wind Dir Wind Speed Gust Speed Precip Events Conditions
12:53 AM 66.0 °F 24.1 °F 20% 29.69 in 10.0 mi NW 20.7 mph 32.2 mph N/A   Clear
1:53 AM 63.0 °F 28.0 °F 27% 29.70 in 10.0 mi NW 21.9 mph 28.8 mph N/A   Clear
2:53 AM 62.1 °F 30.0 °F 30% 29.70 in 10.0 mi NW 19.6 mph 29.9 mph N/A   Clear
3:53 AM 63.0 °F 25.0 °F 24% 29.71 in 10.0 mi NW 12.7 mph 23.0 mph N/A   Clear
4:53 AM 60.1 °F 30.9 °F 33% 29.73 in 10.0 mi NNW 18.4 mph - N/A   Clear
5:53 AM 59.0 °F 28.9 °F 32% 29.77 in 10.0 mi NNW 19.6 mph 26.5 mph N/A   Clear
6:53 AM 60.1 °F 26.1 °F 27% 29.78 in 10.0 mi NW 10.4 mph - N/A   Clear
7:53 AM 61.0 °F 25.0 °F 25% 29.82 in 10.0 mi NW 13.8 mph - N/A   Clear
8:53 AM 64.9 °F 24.1 °F 21% 29.83 in 10.0 mi WNW 8.1 mph 21.9 mph N/A   Clear
9:53 AM 66.9 °F 21.0 °F 17% 29.84 in 10.0 mi Variable 3.5 mph - N/A   Clear
10:53 AM 71.1 °F 17.1 °F 13% 29.84 in 10.0 mi East 5.8 mph - N/A   Clear
11:53 AM 73.0 °F 16.0 °F 11% 29.82 in 10.0 mi North 8.1 mph - N/A   Clear
12:53 PM 73.9 °F 19.0 °F 13% 29.82 in 10.0 mi SW 5.8 mph - N/A   Clear
1:53 PM 78.1 °F 17.1 °F 10% 29.81 in 10.0 mi NNE 8.1 mph 17.3 mph N/A   Clear
2:53 PM 79.0 °F 15.1 °F 9% 29.79 in 10.0 mi NNW 5.8 mph - N/A   Partly Cloudy
3:53 PM 81.0 °F 14.0 °F 8% 29.77 in 10.0 mi North 6.9 mph - N/A   Partly Cloudy
4:53 PM 79.0 °F 12.0 °F 8% 29.77 in 10.0 mi Calm Calm - N/A   Clear
5:53 PM 79.0 °F 10.9 °F 8% 29.78 in 10.0 mi WNW 5.8 mph - N/A   Clear
6:53 PM 78.1 °F 8.1 °F 7% 29.79 in 10.0 mi NW 10.4 mph - N/A   Clear
7:53 PM 75.0 °F 10.9 °F 9% 29.81 in 10.0 mi NNW 15.0 mph - N/A   Clear
8:53 PM 73.0 °F 24.1 °F 16% 29.86 in 10.0 mi NW 15.0 mph 26.5 mph N/A   Clear
9:53 PM 71.1 °F 21.9 °F 16% 29.89 in 10.0 mi NW 16.1 mph - N/A   Clear
10:53 PM 71.1 °F 19.9 °F 14% 29.91 in 10.0 mi NNW 17.3 mph 23.0 mph N/A   Clear
11:53 PM 70.0 °F 19.0 °F 14% 29.94 in 10.0 mi NNW 11.5 mph - N/A   Clear